Location: Bailen
(14.1842°N, 120.7958°E)
Time: 17:42:34
(UTC+00:00)

Cosmos 1110 Rocket - Pass Details

Date: 12 January 2026
Orbit: 749 x 776 km, 74.0° (Epoch: 17 February)

Event Time Altitude Azimuth Distance (km) Brightness Sun altitude
Exits shadow 21:16:30 11° 340° (NNW) 2,182 6.0 -16.3°
Maximum altitude 21:21:23 70° 258° (WSW) 799 3.9 -15.2°
Drops below altitude 10° 21:26:30 10° 175° (S) 2,274 6.8 -14.0°
Sets 21:28:53 0° 172° (S) 3,202 7.6 -13.5°
